Weather History for Brownsville, TX

Change the Weather History Date:

Sunday, November 13, 2011

  Actual Average Record
Temperature  
Mean Temperature 76 °F 70 °F  
Max Temperature 86 °F 80 °F 94 °F (1969)
Min Temperature 65 °F 60 °F 38 °F (1986)
Degree Days  
Heating Degree Days 0 1  
Month to date heating degree days 18 13  
Since 1 July heating degree days 19 17  
Cooling Degree Days 11 6  
Month to date cooling degree days 83 97  
Year to date cooling degree days 4419 3862  
Growing Degree Days 24 (Base 50)    
Moisture  
Dew Point 68 °F    
Average Humidity 78    
Maximum Humidity 100    
Minimum Humidity 55    
Precipitation  
Precipitation 0.00 in 0.06 in 2.76 in (2008)
Month to date precipitation 0.53 0.94  
Year to date precipitation 16.37 25.41  
Sea Level Pressure  
Sea Level Pressure 29.93 in    
Wind  
Wind Speed 12 mph (SSE)    
Max Wind Speed 26 mph    
Max Gust Speed 33 mph    
Visibility 9 miles    
Events      
T = Trace of Precipitation, MM = Missing Value Source: NWS Daily Summary

Daily Weather History Graph

Daily Weather History Graph

Search for Another Location

Airport:

Trip Planner

Search our weather history database for the weather conditions in past years. The results will help you decide how hot, cold, wet, or windy it might be!

Date:

Astronomy

Nov. 13, 2011 Rise Set
Actual Time 6:46 AM CST 5:41 PM CST
Civil Twilight 6:21 AM CST 6:05 PM CST
Nautical Twilight 5:54 AM CST 6:33 PM CST
Astronomical Twilight 5:26 AM CST 7:00 PM CST
Moon 8:00 PM CST (11/13) 9:09 AM CST (11/13)
Length of Visible Light 11h 43m
Length of Day
10h 55m
Waning Gibbous, 92% of the Moon is Illuminated
Nov 13
Waning Gibbous
Nov 18
Last Quarter
Nov 25
New
Dec 2
First Quarter
Dec 10
Full

Hourly Weather History & Observations

Time (CST) Temp. Heat Index Dew Point Humidity Pressure Visibility Wind Dir Wind Speed Gust Speed Precip Events Conditions
12:40 AM 71.6 °F - 66.2 °F 83% 29.97 in 10.0 mi SSE 3.5 mph - N/A   Overcast
12:53 AM 71.1 °F - 66.9 °F 87% 29.96 in 10.0 mi South 5.8 mph - N/A   Overcast
1:53 AM 69.1 °F - 66.9 °F 93% 29.96 in 10.0 mi SSE 3.5 mph - N/A   Mostly Cloudy
2:53 AM 66.9 °F - 66.0 °F 97% 29.95 in 5.0 mi Calm Calm - N/A   Clear
3:43 AM 68.0 °F - 66.2 °F 94% 29.94 in 10.0 mi South 4.6 mph - N/A   Mostly Cloudy
3:53 AM 68.0 °F - 66.0 °F 93% 29.94 in 10.0 mi South 4.6 mph - N/A   Scattered Clouds
4:53 AM 66.0 °F - 64.9 °F 96% 29.93 in 10.0 mi SE 4.6 mph - N/A   Clear
5:53 AM 66.0 °F - 64.9 °F 96% 29.94 in 8.0 mi SSE 4.6 mph - N/A   Clear
6:31 AM 64.4 °F - 64.4 °F 100% 29.94 in 1.8 mi Calm Calm - N/A   Partly Cloudy
6:41 AM 66.2 °F - 64.4 °F 94% 29.94 in 3.0 mi SSE 3.5 mph - N/A   Partly Cloudy
6:53 AM 66.0 °F - 64.9 °F 96% 29.94 in 5.0 mi SSE 4.6 mph - N/A   Partly Cloudy
7:53 AM 69.1 °F - 69.1 °F 100% 29.94 in 8.0 mi South 3.5 mph - N/A   Clear
8:53 AM 78.1 °F - 71.1 °F 79% 29.96 in 10.0 mi SSE 13.8 mph - N/A   Partly Cloudy
9:17 AM 80.6 °F 83.9 °F 69.8 °F 70% 29.96 in 10.0 mi South 13.8 mph 25.3 mph N/A   Mostly Cloudy
9:28 AM 80.6 °F 83.9 °F 69.8 °F 70% 29.96 in 10.0 mi South 20.7 mph 26.5 mph N/A   Scattered Clouds
9:53 AM 81.0 °F 84.1 °F 69.1 °F 67% 29.96 in 10.0 mi South 19.6 mph 25.3 mph N/A   Mostly Cloudy
10:10 AM 82.4 °F 86.3 °F 69.8 °F 66% 29.97 in 10.0 mi South 18.4 mph 23.0 mph N/A   Mostly Cloudy
10:44 AM 82.4 °F 86.3 °F 69.8 °F 66% 29.96 in 10.0 mi South 18.4 mph 28.8 mph N/A   Mostly Cloudy
10:53 AM 82.0 °F 85.5 °F 69.1 °F 65% 29.96 in 10.0 mi South 21.9 mph 28.8 mph N/A   Mostly Cloudy
11:02 AM 84.2 °F 88.4 °F 69.8 °F 62% 29.96 in 10.0 mi South 19.6 mph 28.8 mph N/A   Mostly Cloudy
11:53 AM 84.9 °F 87.6 °F 66.9 °F 55% 29.94 in 10.0 mi South 20.7 mph 32.2 mph N/A   Scattered Clouds
12:53 PM 84.0 °F 87.0 °F 68.0 °F 58% 29.90 in 10.0 mi South 20.7 mph 27.6 mph N/A   Mostly Cloudy
1:53 PM 82.9 °F 85.4 °F 66.9 °F 58% 29.88 in 10.0 mi SSE 19.6 mph 26.5 mph N/A   Mostly Cloudy
2:53 PM 82.9 °F 85.0 °F 66.0 °F 56% 29.86 in 10.0 mi SSE 21.9 mph 28.8 mph N/A   Mostly Cloudy
3:53 PM 82.0 °F 84.5 °F 66.9 °F 60% 29.86 in 10.0 mi South 18.4 mph 26.5 mph N/A   Scattered Clouds
4:53 PM 80.1 °F 81.9 °F 64.9 °F 60% 29.86 in 10.0 mi SSE 18.4 mph 27.6 mph N/A   Clear
5:53 PM 77.0 °F - 68.0 °F 74% 29.86 in 10.0 mi SSE 13.8 mph - N/A   Clear
6:53 PM 75.0 °F - 68.0 °F 79% 29.88 in 10.0 mi SSE 12.7 mph - N/A   Clear
7:53 PM 73.9 °F - 69.1 °F 85% 29.88 in 10.0 mi SSE 11.5 mph - N/A   Clear
8:53 PM 75.0 °F - 69.1 °F 82% 29.90 in 10.0 mi SSE 13.8 mph - N/A   Clear
9:53 PM 73.0 °F - 69.1 °F 87% 29.90 in 10.0 mi SSE 9.2 mph - N/A   Clear
10:53 PM 73.0 °F - 69.1 °F 87% 29.90 in 10.0 mi SSE 9.2 mph - N/A   Clear
11:53 PM 73.0 °F - 69.1 °F 87% 29.90 in 10.0 mi SSE 6.9 mph - N/A   Partly Cloudy